Location: Berlin
(42.3812°N, 71.6370°W)
Time: 21:48:40
(UTC+00:00)

Cosmos 1302 Rocket - Pass Details

Date: 15 November 2025
Orbit: 752 x 772 km, 74.0° (Epoch: 11 December)

Event Time Altitude Azimuth Distance (km) Brightness Sun altitude
Rises 10:59:20 0° 199° (SSW) 3,187 7.2 -7.4°
Reaches altitude 10° 11:01:41 10° 199° (SSW) 2,266 6.5 -7.0°
Maximum altitude 11:06:49 88° 287° (WNW) 759 4.0 -6.1°
Drops below altitude 10° 11:12:01 10° 20° (NNE) 2,286 6.5 -5.2°
Sets 11:14:24 0° 20° (NNE) 3,217 7.2 -4.8°
